Weather reports worldwide

Advertisment
Cap Corse, France (7785): temperature & dewpoint: 16.03.2019 18:00:00 - 22.03.2019 18:00:00 (CET)Cap Corse, France (7785): wind speed & gusts: 16.03.2019 18:00:00 - 22.03.2019 18:00:00 (CET)Cap Corse, France (7785): wind direction: 16.03.2019 18:00:00 - 22.03.2019 18:00:00 (CET)Cap Corse, France (7785): reduced air pressure: 16.03.2019 18:00:00 - 22.03.2019 18:00:00 (CET)Cap Corse, France (7785): visibility: 16.03.2019 18:00:00 - 22.03.2019 18:00:00 (CET)Cap Corse, France (7785): precipitation: 16.03.2019 18:00:00 - 22.03.2019 18:00:00 (CET)
Date & Time tt [°C] td [°C] ff [km/h] ff [kn] fx [km/h] fx [kn] dd ppp [hPa] vv [km] rr [mm]
22.03.2019 18:00:00 13,5 4,9 14 7 24 13 E 1025,0 - 0,0
22.03.2019 17:00:00 14,6 5,9 16 9 24 13 E 1025,3 - 0,0
22.03.2019 16:00:00 15,1 9,7 16 9 30 16 ENE 1025,8 - 0,0
22.03.2019 15:00:00 15,7 5,0 22 12 30 16 E 1026,1 - 0,0
22.03.2019 14:00:00 15,3 6,8 21 12 32 18 E 1026,6 - 0,0
22.03.2019 13:00:00 15,2 7,7 24 13 34 18 E 1026,9 18 0,0
22.03.2019 12:00:00 15,5 5,7 23 12 40 21 E 1027,4 - 0,0
22.03.2019 11:00:00 15,4 3,8 26 14 43 23 E 1027,6 - 0,0
22.03.2019 10:00:00 15,3 3,7 31 17 54 29 E 1027,7 - 0,0
22.03.2019 09:00:00 14,2 4,5 37 20 54 29 E 1027,2 - 0,0
22.03.2019 08:00:00 13,9 4,7 31 17 53 28 E 1026,9 - 0,0
22.03.2019 07:00:00 12,4 5,3 26 14 41 22 E 1026,8 15 0,0
22.03.2019 06:00:00 11,6 4,3 23 12 44 24 E 1026,7 - 0,0
22.03.2019 05:00:00 12,5 4,9 30 16 45 25 E 1026,5 - 0,0
22.03.2019 04:00:00 12,1 4,6 28 15 53 28 E 1026,6 15 0,0
22.03.2019 03:00:00 12,3 5,7 30 16 46 25 E 1026,5 - 0,0
22.03.2019 02:00:00 12,2 4,9 26 14 48 26 E 1026,8 - 0,0
22.03.2019 01:00:00 12,3 5,0 24 13 42 23 E 1027,0 - 0,0
22.03.2019 00:00:00 12,5 4,9 24 13 39 21 E 1027,1 - 0,0
21.03.2019 23:00:00 12,2 5,1 23 13 37 20 E 1027,4 - 0,0
21.03.2019 22:00:00 12,4 7,9 23 13 32 17 E 1027,3 - 0,0
21.03.2019 21:00:00 12,5 8,2 19 10 31 17 E 1027,1 - 0,0
21.03.2019 20:00:00 12,8 8,7 20 11 33 18 ENE 1027,0 - 0,0
21.03.2019 19:00:00 13,0 7,4 18 10 35 19 E 1026,6 - 0,0
21.03.2019 18:00:00 13,2 8,1 26 14 38 21 NE 1026,1 - 0,0
21.03.2019 17:00:00 14,0 8,2 23 12 35 19 NE 1026,0 - 0,0
21.03.2019 16:00:00 14,3 7,3 28 15 40 22 NE 1026,2 - 0,0
21.03.2019 15:00:00 14,3 6,1 27 14 42 23 ENE 1026,6 - 0,0
21.03.2019 14:00:00 14,2 5,8 30 16 40 21 ENE 1027,0 - 0,0
21.03.2019 13:00:00 13,7 5,3 27 15 39 21 ENE 1027,8 18 0,0
21.03.2019 12:00:00 13,7 4,8 26 14 44 24 ENE 1028,2 - 0,0
21.03.2019 11:00:00 13,2 3,5 33 18 53 28 E 1028,2 - 0,0
21.03.2019 10:00:00 12,6 2,2 36 19 59 32 E 1028,1 - 0,0
21.03.2019 09:00:00 12,2 2,1 43 23 63 34 E 1027,6 - 0,0
21.03.2019 08:00:00 11,8 1,7 38 21 55 30 E 1027,7 - 0,0
21.03.2019 07:00:00 11,1 1,6 38 21 54 29 E 1027,1 - 0,0
21.03.2019 06:00:00 10,5 1,3 36 20 54 29 E 1026,8 - 0,0
21.03.2019 05:00:00 10,8 1,1 37 20 58 31 E 1026,7 - 0,0
21.03.2019 04:00:00 10,8 1,1 38 20 68 37 E 1026,7 18 0,0
21.03.2019 03:00:00 11,0 -0,2 46 25 88 47 E 1026,6 - 0,0
21.03.2019 02:00:00 11,0 -1,1 60 32 90 49 E 1026,8 - 0,0
21.03.2019 01:00:00 10,9 -1,2 50 27 77 42 E 1027,3 - 0,0
21.03.2019 00:00:00 10,7 -1,7 53 28 80 43 E 1027,2 - 0,0
20.03.2019 23:00:00 11,2 -0,9 55 30 82 45 E 1027,3 - 0,0
20.03.2019 22:00:00 11,5 -0,7 46 25 72 39 E 1027,5 - 0,0
20.03.2019 21:00:00 11,7 -0,8 49 26 70 38 E 1027,2 - 0,0
20.03.2019 20:00:00 12,1 -0,1 42 23 61 33 E 1027,0 - 0,0
20.03.2019 19:00:00 12,3 1,9 38 21 58 31 E 1026,7 - 0,0
20.03.2019 18:00:00 12,6 1,9 39 21 59 32 ENE 1026,3 - 0,0
20.03.2019 17:00:00 13,0 2,2 41 22 60 33 ENE 1025,8 - 0,0
20.03.2019 16:00:00 13,3 3,6 39 21 50 27 ENE 1025,7 - 0,0
20.03.2019 15:00:00 13,4 3,7 34 19 56 31 NE 1026,1 - 0,0
20.03.2019 14:00:00 13,4 2,9 43 23 69 37 ENE 1026,2 - 0,0
20.03.2019 13:00:00 13,1 2,3 49 26 72 39 ENE 1026,5 20 0,0
20.03.2019 12:00:00 12,8 0,8 52 28 71 38 E 1026,5 - 0,0
20.03.2019 11:00:00 11,9 0,9 48 26 79 43 E 1026,8 - 0,0
20.03.2019 10:00:00 11,7 1,3 57 31 88 48 E 1026,1 - 0,0
20.03.2019 09:00:00 11,3 2,1 61 33 84 45 ENE 1025,8 - 0,0
20.03.2019 08:00:00 10,7 1,0 59 32 85 46 E 1025,2 - 0,0
20.03.2019 07:00:00 10,7 0,7 51 27 74 40 E 1024,8 20 0,0
20.03.2019 06:00:00 10,4 1,5 53 29 78 42 E 1024,1 - 0,0
20.03.2019 05:00:00 10,5 1,3 45 25 71 38 E 1023,8 - 0,0
20.03.2019 04:00:00 10,7 -0,5 45 24 63 34 E 1023,7 18 0,0
20.03.2019 03:00:00 10,6 0,9 39 21 62 34 E 1024,0 - 0,0
20.03.2019 02:00:00 10,8 0,5 41 22 61 33 E 1024,2 - 0,0
20.03.2019 01:00:00 10,9 0,9 36 19 57 31 E 1024,1 - 0,0
20.03.2019 00:00:00 11,4 0,2 29 16 41 22 ENE 1023,9 - 0,0
19.03.2019 23:00:00 11,0 0,1 29 15 50 27 E 1024,0 - 0,0
19.03.2019 22:00:00 10,7 2,5 35 19 49 26 E 1023,6 - 0,0
19.03.2019 21:00:00 10,9 2,2 35 19 55 30 E 1023,2 - 0,0
19.03.2019 20:00:00 11,1 2,9 33 18 45 25 E 1022,8 - 0,0
19.03.2019 19:00:00 11,5 3,0 27 15 39 21 E 1022,3 - 0,0
19.03.2019 18:00:00 11,2 2,7 20 11 37 20 ENE 1021,7 - 0,0
19.03.2019 17:00:00 11,7 3,5 23 12 36 19 E 1021,0 - 0,0
19.03.2019 16:00:00 12,6 2,2 22 12 34 19 ENE 1020,7 15 0,0
19.03.2019 15:00:00 13,0 3,1 25 14 40 22 ENE 1020,5 - 0,0
19.03.2019 14:00:00 12,6 2,2 28 15 42 23 E 1020,4 - 0,0
19.03.2019 13:00:00 12,5 2,3 28 15 52 28 E 1020,6 15 0,0
19.03.2019 12:00:00 11,9 1,2 35 19 54 29 E 1020,6 - 0,0
19.03.2019 11:00:00 11,6 2,9 35 19 70 38 E 1020,4 - 0,0
19.03.2019 10:00:00 11,6 2,1 46 25 67 36 E 1019,8 15 0,0
19.03.2019 09:00:00 10,9 3,0 41 22 63 34 E 1019,5 - 0,0
19.03.2019 08:00:00 10,4 3,7 34 18 53 29 E 1018,7 - 0,0
19.03.2019 07:00:00 9,9 3,8 23 12 39 21 ESE 1018,3 15 0,0
19.03.2019 06:00:00 9,9 4,9 16 9 31 17 E 1017,8 - 0,0
19.03.2019 05:00:00 9,4 4,6 14 7 24 13 E 1017,5 - 0,0
19.03.2019 04:00:00 9,7 4,3 13 7 21 11 ENE 1017,2 15 0,0
19.03.2019 03:00:00 9,8 3,3 15 8 25 13 E 1017,1 - 0,0
19.03.2019 02:00:00 9,8 2,4 19 10 27 14 ESE 1017,0 - 0,0
19.03.2019 01:00:00 10,5 2,1 19 10 26 14 ESE 1017,2 - 0,0
19.03.2019 00:00:00 9,7 3,6 10 5 18 10 ESE 1017,1 - 0,0
18.03.2019 23:00:00 10,7 3,0 15 8 38 20 ESE 1017,1 - 0,0
18.03.2019 22:00:00 11,6 5,9 23 12 50 27 SSW 1016,8 - 0,0
18.03.2019 21:00:00 11,4 5,9 30 16 50 27 SW 1015,8 - 0,0
18.03.2019 20:00:00 11,6 6,5 27 14 58 32 WSW 1015,4 - 0,0
18.03.2019 19:00:00 11,7 6,2 36 19 66 36 WSW 1014,9 - 0,0
18.03.2019 18:00:00 12,7 5,8 35 19 60 32 WSW 1014,3 - 0,0
18.03.2019 17:00:00 13,2 5,1 42 23 54 29 WSW 1013,4 - 0,0
18.03.2019 16:00:00 14,0 5,4 36 20 56 31 WSW 1013,4 15 0,0
18.03.2019 15:00:00 13,8 5,9 36 19 54 29 W 1013,5 - 0,0
18.03.2019 14:00:00 13,5 6,8 35 19 53 28 W 1013,7 - 0,0
18.03.2019 13:00:00 13,3 5,7 40 22 70 38 W 1013,7 15 0,0
18.03.2019 12:00:00 12,5 4,5 46 25 85 46 W 1013,5 - 0,0
18.03.2019 11:00:00 12,3 4,3 59 32 96 52 W 1012,8 - 0,0
18.03.2019 10:00:00 12,1 4,6 53 29 101 54 WSW 1012,3 - 0,0
18.03.2019 09:00:00 12,4 4,4 59 32 111 60 W 1011,9 - 0,0
18.03.2019 08:00:00 11,9 3,6 70 38 117 63 WSW 1010,8 - 0,0
18.03.2019 07:00:00 11,7 3,7 68 37 114 61 W 1010,4 - 0,0
18.03.2019 06:00:00 11,9 5,1 69 37 95 52 W 1009,8 - 0,0
18.03.2019 05:00:00 12,5 5,9 69 37 110 60 W 1009,5 - 0,0
18.03.2019 04:00:00 13,2 8,5 70 38 109 59 WSW 1009,1 15 0,0
18.03.2019 03:00:00 13,6 9,4 41 22 78 42 WSW 1010,6 - 0,0
18.03.2019 02:00:00 13,4 7,8 20 11 49 26 SW 1011,7 - 0,0
18.03.2019 01:00:00 12,2 8,8 26 14 47 26 SE 1012,3 - 0,0
18.03.2019 00:00:00 12,9 9,5 23 13 45 24 WSW 1012,7 - 0,0
17.03.2019 23:00:00 12,7 8,8 18 10 30 16 WSW 1013,3 - 0,0
17.03.2019 22:00:00 11,0 9,4 7 4 16 8 W 1013,8 - 0,0
17.03.2019 21:00:00 10,7 9,0 11 6 15 8 W 1013,6 - 0,0
17.03.2019 20:00:00 11,1 9,2 9 5 10 6 W 1013,4 - 0,0
17.03.2019 19:00:00 11,5 8,7 6 3 9 5 W 1013,6 - 0,0
17.03.2019 18:00:00 13,8 10,2 8 4 18 10 WNW 1013,8 - 0,0
17.03.2019 17:00:00 15,2 10,4 11 6 22 12 NW 1014,2 - 0,0
17.03.2019 16:00:00 15,6 10,4 17 9 29 16 W 1014,4 15 0,0
17.03.2019 15:00:00 17,0 8,9 13 7 29 16 WSW 1014,8 - 0,0
17.03.2019 14:00:00 16,8 8,7 15 8 23 12 WSW 1015,5 - 0,0
17.03.2019 13:00:00 15,1 9,5 10 5 18 10 W 1016,4 15 0,0
17.03.2019 12:00:00 14,0 11,0 11 6 22 12 W 1016,8 - 0,0
17.03.2019 11:00:00 15,1 11,3 11 6 22 12 W 1016,8 - 0,0
17.03.2019 10:00:00 15,8 9,7 13 7 33 18 ESE 1017,4 - 0,0
17.03.2019 09:00:00 14,2 10,6 15 8 32 18 E 1017,3 - 0,0
17.03.2019 08:00:00 12,6 11,2 21 11 31 17 ESE 1017,2 - 0,0
17.03.2019 07:00:00 11,4 10,1 14 8 19 11 ESE 1017,3 15 0,0
17.03.2019 06:00:00 11,0 9,9 10 5 14 8 ESE 1017,4 - 0,0
17.03.2019 05:00:00 11,4 10,0 5 3 6 4 E 1017,7 - 0,0
17.03.2019 04:00:00 12,4 10,8 3 2 7 4 SE 1017,8 15 0,0
17.03.2019 03:00:00 12,4 10,8 3 2 13 7 WNW 1018,2 - 0,0
17.03.2019 02:00:00 12,7 11,1 11 6 16 9 W 1018,6 - 0,0
17.03.2019 01:00:00 12,4 10,5 4 2 12 6 SSE 1019,0 - 0,0
17.03.2019 00:00:00 12,7 11,1 9 5 18 10 WSW 1019,2 - 0,0
16.03.2019 23:00:00 12,8 11,2 5 3 21 11 WSW 1019,2 - 0,0
16.03.2019 22:00:00 12,5 11,1 12 7 23 13 W 1019,2 - 0,0
16.03.2019 21:00:00 12,5 10,9 15 8 32 18 WSW 1018,9 - 0,0
16.03.2019 20:00:00 12,3 10,2 13 7 36 20 WSW 1018,6 - 0,0
16.03.2019 19:00:00 13,0 10,7 18 10 34 19 SW 1018,3 - 0,0
16.03.2019 18:00:00 14,1 11,1 18 10 24 13 W 1018,0 - 0,0

tt = temperature
td = dewpoint
ff = wind speed
fx = gusts
dd = wind direction
ppp = reduced air pressure
vv = visibility
rr = precipitation

Next stations